,time_local,date,TEMP,temp_index,temp_bin_index
0,2021-06-01 12:00:00,2021-06-01,24.989999925492896,T < 25,0
1,2021-06-02 12:00:00,2021-06-02,24.434444384661276,T < 25,0
2,2021-06-03 12:00:00,2021-06-03,23.323333302998094,T < 25,0
3,2021-06-04 12:00:00,2021-06-04,22.76777776216653,T < 25,0
4,2021-06-05 12:00:00,2021-06-05,23.878888843829714,T < 25,0
5,2021-06-06 12:00:00,2021-06-06,20.545555522462564,T < 25,0
6,2021-06-07 12:00:00,2021-06-07,16.656666660263852,T < 25,0
7,2021-06-08 12:00:00,2021-06-08,22.212222221334912,T < 25,0
8,2021-06-09 12:00:00,2021-06-09,23.878888843829714,T < 25,0
9,2021-06-10 12:00:00,2021-06-10,23.323333302998094,T < 25,0
10,2021-06-11 12:00:00,2021-06-11,26.656666624365243,25 <= T < 30,1
11,2021-06-12 12:00:00,2021-06-12,28.878888864069154,25 <= T < 30,1
12,2021-06-13 12:00:00,2021-06-13,29.434444404900773,25 <= T < 30,1
13,2021-06-14 12:00:00,2021-06-14,30.545555486563956,30 <= T < 37,2
14,2021-06-15 12:00:00,2021-06-15,32.767777726267866,30 <= T < 37,2
15,2021-06-16 12:00:00,2021-06-16,27.212222165196806,25 <= T < 30,1
16,2021-06-17 12:00:00,2021-06-17,27.212222165196806,25 <= T < 30,1
17,2021-06-18 12:00:00,2021-06-18,25.54555554270206,25 <= T < 30,1
18,2021-06-19 12:00:00,2021-06-19,26.101111083533624,25 <= T < 30,1
19,2021-06-20 12:00:00,2021-06-20,23.878888843829714,T < 25,0
20,2021-06-21 12:00:00,2021-06-21,25.54555554270206,25 <= T < 30,1
21,2021-06-22 12:00:00,2021-06-22,27.212222165196806,25 <= T < 30,1
22,2021-06-23 12:00:00,2021-06-23,27.767777706028426,25 <= T < 30,1
23,2021-06-24 12:00:00,2021-06-24,25.54555554270206,25 <= T < 30,1
24,2021-06-25 12:00:00,2021-06-25,24.434444384661276,T < 25,0
25,2021-06-26 12:00:00,2021-06-26,27.212222165196806,25 <= T < 30,1
26,2021-06-27 12:00:00,2021-06-27,27.212222165196806,25 <= T < 30,1
27,2021-06-28 12:00:00,2021-06-28,26.656666624365243,25 <= T < 30,1
28,2021-06-29 12:00:00,2021-06-29,24.434444384661276,T < 25,0
29,2021-06-30 12:00:00,2021-06-30,26.101111083533624,25 <= T < 30,1
30,2021-08-01 12:00:00,2021-08-01,31.10111110377312,30 <= T < 37,2
31,2021-08-02 12:00:00,2021-08-02,34.434444425140214,30 <= T < 37,2
32,2021-08-03 12:00:00,2021-08-03,31.656666644604684,30 <= T < 37,2
33,2021-08-04 12:00:00,2021-08-04,29.434444404900773,25 <= T < 30,1
34,2021-08-05 12:00:00,2021-08-05,28.32333332323759,25 <= T < 30,1
35,2021-08-06 12:00:00,2021-08-06,25.54555554270206,25 <= T < 30,1
36,2021-08-07 12:00:00,2021-08-07,26.656666624365243,25 <= T < 30,1
37,2021-08-08 12:00:00,2021-08-08,25.54555554270206,25 <= T < 30,1
38,2021-08-09 12:00:00,2021-08-09,28.878888864069154,25 <= T < 30,1
39,2021-08-10 12:00:00,2021-08-10,29.989999945732336,25 <= T < 30,1
40,2021-08-11 12:00:00,2021-08-11,31.10111110377312,30 <= T < 37,2
41,2021-08-12 12:00:00,2021-08-12,32.21222218543625,30 <= T < 37,2
42,2021-08-13 12:00:00,2021-08-13,29.989999945732336,25 <= T < 30,1
43,2021-08-14 12:00:00,2021-08-14,29.989999945732336,25 <= T < 30,1
44,2021-08-15 12:00:00,2021-08-15,29.434444404900773,25 <= T < 30,1
45,2021-08-16 12:00:00,2021-08-16,29.434444404900773,25 <= T < 30,1
46,2021-08-17 12:00:00,2021-08-17,27.212222165196806,25 <= T < 30,1
47,2021-08-18 12:00:00,2021-08-18,23.323333302998094,T < 25,0
48,2021-08-19 12:00:00,2021-08-19,26.101111083533624,25 <= T < 30,1
49,2021-08-20 12:00:00,2021-08-20,24.989999925492896,T < 25,0
50,2021-08-21 12:00:00,2021-08-21,21.656666604125746,T < 25,0
51,2021-08-22 12:00:00,2021-08-22,23.323333302998094,T < 25,0
52,2021-08-23 12:00:00,2021-08-23,24.434444384661276,T < 25,0
53,2021-08-24 12:00:00,2021-08-24,27.767777706028426,25 <= T < 30,1
54,2021-08-25 12:00:00,2021-08-25,31.10111110377312,30 <= T < 37,2
55,2021-08-26 12:00:00,2021-08-26,33.878888884308594,30 <= T < 37,2
56,2021-08-27 12:00:00,2021-08-27,32.767777726267866,30 <= T < 37,2
57,2021-08-28 12:00:00,2021-08-28,30.545555486563956,30 <= T < 37,2
58,2021-08-29 12:00:00,2021-08-29,29.989999945732336,25 <= T < 30,1
59,2021-08-30 12:00:00,2021-08-30,25.54555554270206,25 <= T < 30,1
60,2021-08-31 12:00:00,2021-08-31,22.76777776216653,T < 25,0
61,2021-09-01 12:00:00,2021-09-01,22.76777776216653,T < 25,0
62,2021-09-02 12:00:00,2021-09-02,23.323333302998094,T < 25,0
63,2021-09-03 12:00:00,2021-09-03,27.767777706028426,25 <= T < 30,1
64,2021-09-04 12:00:00,2021-09-04,33.878888884308594,30 <= T < 37,2
65,2021-09-05 12:00:00,2021-09-05,36.101111047635015,30 <= T < 37,2
66,2021-09-06 12:00:00,2021-09-06,28.32333332323759,25 <= T < 30,1
67,2021-09-07 12:00:00,2021-09-07,28.32333332323759,25 <= T < 30,1
68,2021-09-08 12:00:00,2021-09-08,28.32333332323759,25 <= T < 30,1
